FW5819 Weather Reports


time (UTC)temp
C
wind
direction
speed
KPH
gust
KPH
rain 1hr
cm
rain 24hr
cm
rain mn
cm
humidity
%
barometer
mb
20260510190037 14 46 3.2 12.9 0.00 0.66 0.00 51 1019.1
20260510184535 13 326 6.4 14.5 0.00 0.66 0.00 47 1019.0
20260510183036 13 309 4.8 14.5 0.00 0.66 0.00 47 1018.9
20260510181532 13 40 4.8 14.5 0.00 0.66 0.00 53 1018.6
20260510180031 13 339 4.8 16.1 0.00 0.66 0.00 52 1018.6
20260510174532 13 15 6.4 14.5 0.00 0.66 0.00 53 1018.4
20260510173038 13 40 4.8 14.5 0.00 0.66 0.00 53 1018.5
20260510171546 13 17 6.4 11.3 0.00 0.66 0.00 57 1018.5
20260510170039 13 342 4.8 14.5 0.00 0.66 0.00 57 1018.4
20260510164534 13 88 4.8 17.7 0.00 0.66 0.00 58 1018.5
20260510163032 13 11 3.2 14.5 0.00 0.66 0.00 54 1018.4
20260510161531 12 350 4.8 12.9 0.00 0.66 0.00 60 1018.3
20260510160033 12 336 6.4 12.9 0.00 0.66 0.00 56 1018.1
20260510154536 12 22 6.4 14.5 0.00 0.66 0.00 59 1017.8
20260510153042 12 318 4.8 14.5 0.00 0.66 0.00 57 1017.8
20260510151536 12 0 0.0 8.0 0.00 0.66 0.00 56 1017.8
20260510150034 12 327 4.8 14.5 0.00 0.66 0.00 56 1017.4
20260510144535 12 24 6.4 16.1 0.00 0.66 0.00 57 1017.4
20260510143037 11 106 4.8 14.5 0.00 0.66 0.00 55 1017.4
20260510141540 11 331 6.4 12.9 0.00 0.66 0.00 56 1017.3
20260510140035 11 37 6.4 14.5 0.00 0.66 0.00 53 1017.5
20260510134532 11 149 1.6 8.0 0.00 0.66 0.00 58 1017.3
20260510133033 11 342 1.6 12.9 0.00 0.66 0.00 60 1017.1
20260510131531 10 333 4.8 19.3 0.00 0.66 0.00 64 1016.9
20260510130047 10 9 4.8 16.1 0.00 0.66 0.00 64 1016.6
20260510124545 10 327 4.8 16.1 0.00 0.66 0.00 66 1016.4
20260510123034 10 11 3.2 9.7 0.00 0.66 0.00 67 1016.1
20260510121542 10 32 3.2 9.7 0.00 0.66 0.00 66 1016.0
20260510120034 9 317 4.8 14.5 0.00 0.66 0.00 66 1015.8
20260510114531 8 344 3.2 8.0 0.00 0.66 0.00 72 1015.6
20260510113039 8 81 3.2 8.0 0.00 0.66 0.00 74 1015.0
20260510111535 8 345 3.2 9.7 0.00 0.66 0.00 77 1014.9
20260510110041 8 41 3.2 9.7 0.00 0.66 0.00 77 1014.5
20260510104534 8 17 3.2 4.8 0.00 0.66 0.00 77 1014.3
20260510103034 8 350 3.2 6.4 0.00 0.66 0.00 78 1013.8
20260510101539 8 17 0.0 4.8 0.00 0.66 0.00 78 1013.6
20260510100035 8 342 1.6 6.4 0.00 0.66 0.00 79 1013.4
20260510094536 8 0 0.0 4.8 0.00 0.66 0.00 81 1013.2
20260510093035 8 24 1.6 8.0 0.00 0.66 0.00 81 1013.0
20260510091556 7 32 1.6 6.4 0.00 0.66 0.00 84 1012.9
20260510090032 7 0 0.0 0.0 0.00 0.66 0.00 85 1012.6
20260510084536 7 0 0.0 0.0 0.00 0.66 0.00 84 1012.3
20260510083045 7 0 0.0 1.6 0.00 0.66 0.00 83 1012.2
20260510081536 8 0 0.0 0.0 0.00 0.66 0.00 83 1011.8
20260510080035 8 0 0.0 1.6 0.00 0.66 0.00 81 1011.7
20260510074535 8 0 0.0 0.0 0.00 0.66 0.00 78 1011.4
20260510073033 8 0 0.0 1.6 0.00 0.66 0.00 76 1011.0
20260510071533 9 0 0.0 1.6 0.00 0.66 0.00 75 1010.8
20260510070036 10 144 0.0 6.4 0.00 0.66 0.00 74 1010.7
20260510064539 10 0 0.0 9.7 0.00 0.66 0.00 72 1010.6
20260510063035 10 5 3.2 14.5 0.00 0.66 0.00 72 1010.7
20260510061536 10 325 3.2 14.5 0.00 0.66 0.00 72 1010.6
20260510060036 11 335 1.6 8.0 0.00 0.66 0.00 73 1010.4
20260510054537 11 38 4.8 12.9 0.00 0.66 0.00 73 1010.1
20260510053035 11 331 6.4 20.9 0.00 0.66 0.00 74 1010.0
20260510051536 13 65 9.7 24.1 0.00 0.66 0.00 80 1009.2
20260510050033 14 294 1.6 6.4 0.00 0.66 0.00 82 1008.6
20260510044535 13 259 1.6 9.7 0.00 0.66 0.00 84 1008.5
20260510043032 14 0 0.0 4.8 0.00 0.66 0.00 83 1007.8
20260510041536 13 250 4.8 12.9 0.00 0.66 0.00 84 1007.8
20260510040038 13 232 3.2 8.0 0.00 0.66 0.00 84 1007.3
20260510034533 13 275 1.6 11.3 0.00 0.71 0.66 83 1007.1
20260510033043 13 234 1.6 11.3 0.00 0.71 0.66 84 1006.9
20260510031540 13 265 1.6 9.7 0.00 0.71 0.66 88 1007.0
20260510030032 13 237 3.2 11.3 0.00 0.71 0.66 89 1007.0
20260510024534 13 206 1.6 12.9 0.00 0.71 0.66 90 1007.1
20260510023036 13 219 3.2 8.0 0.00 0.71 0.66 91 1006.9
20260510021535 13 242 1.6 9.7 0.00 0.71 0.66 92 1006.8
20260510020034 13 215 4.8 16.1 0.00 0.71 0.66 93 1007.0
20260510014532 12 234 0.0 6.4 0.00 0.71 0.66 94 1006.5
20260510013034 12 0 0.0 6.4 0.00 0.71 0.66 93 1006.1
20260510011534 12 225 0.0 4.8 0.00 0.71 0.66 93 1006.1
20260510010035 12 146 0.0 6.4 0.00 0.71 0.66 93 1006.0
20260510004535 12 151 0.0 4.8 0.00 0.71 0.66 93 1005.9
20260510003035 13 284 1.6 9.7 0.00 0.71 0.66 92 1006.0
20260510001532 13 287 3.2 14.5 0.00 0.71 0.66 92 1005.9
20260510000036 13 254 1.6 12.9 0.00 0.71 0.66 92 1005.9
20260509234541 13 279 1.6 11.3 0.05 0.74 0.66 93 1005.9
20260509233038 13 34 1.6 17.7 0.10 0.74 0.66 93 1005.6
20260509231534 12 213 4.8 22.5 0.66 0.74 0.66 92 1005.6
20260509230037 13 265 4.8 19.3 0.66 0.74 0.66 91 1005.5
20260509224545 13 250 4.8 17.7 0.61 0.81 0.61 90 1006.2
20260509223031 13 248 3.2 32.2 0.56 0.76 0.56 85 1005.6
20260509221533 19 292 17.7 38.6 0.00 0.20 0.00 67 1005.3
20260509220034 20 282 8.0 20.9 0.00 0.20 0.00 60 1003.3
20260509214539 21 312 12.9 29.0 0.00 0.23 0.00 58 1003.2
20260509213035 21 225 9.7 35.4 0.00 0.23 0.00 59 1003.1
20260509211534 21 228 8.0 35.4 0.00 0.23 0.00 57 1003.1
20260509210033 22 223 9.7 30.6 0.00 0.23 0.00 56 1003.1
20260509204537 22 296 11.3 27.4 0.00 0.23 0.00 58 1003.4
20260509203040 22 194 12.9 32.2 0.00 0.23 0.00 57 1003.7
20260509201535 22 256 8.0 29.0 0.00 0.23 0.00 61 1003.9
20260509200035 21 213 12.9 30.6 0.00 0.23 0.00 61 1004.2
20260509194533 21 243 11.3 32.2 0.00 0.23 0.00 62 1004.7
20260509193038 21 229 11.3 27.4 0.00 0.23 0.00 61 1004.6
20260509191535 20 247 11.3 25.7 0.00 0.23 0.00 62 1004.8